Regional Weather Roundup
Issued by NWS

Home | Current Version | Previous Version | Graphics & Text | Print | Product List | Glossary On
Versions: 1 2 3 4 5 6 7 8 9 10 11 12 13 14 15 16 17 18 19 20 21 22 23 24 25 26 27 28 29 30 31 32 33 34 35 36 37 38 39 40 41 42 43 44 45 46 47 48 49 50
000
ASUS43 KOAX 241002
RWRNE

WEATHER ROUNDUP FOR NEBRASKA
NATIONAL WEATHER SERVICE OMAHA NE
500 AM CDT SAT SEP 24 2016

NOTES: SATELLITE DATA IS BEING USED TO AUGMENT CLOUD COVER ABOVE
       12000 FEET.
       "FAIR" INDICATES FEW OR NO CLOUDS BELOW 12,000 FEET WITH NO
       SIGNIFICANT WEATHER AND/OR OBSTRUCTIONS TO VISIBILITY.

  * THESE STATIONS DO NOT REPORT WEATHER SUCH AS RAIN...SNOW OR FOG.

NEZ001>004-019>022-054>056-241100-
NEBRASKA PANHANDLE

CITY           SKY/WX    TMP DP  RH WIND       PRES   REMARKS
SCOTTSBLUFF    CLOUDY    47  45  93 W10       29.96F
ALLIANCE       CLOUDY    47  43  86 W21G31    29.93R
CHADRON        CLOUDY    52  45  77 SW18      29.89R
KIMBALL        CLOUDY    43  40  89 NW14G23   29.96F
SIDNEY         LGT RAIN  46  40  79 NW17      29.95F
$$

NEZ057>060-069>072-079>082-241100-
SOUTHWEST NEBRASKA

CITY           SKY/WX    TMP DP  RH WIND       PRES   REMARKS
NORTH PLATTE   CLOUDY    60  55  83 W13       29.83R
IMPERIAL       CLOUDY    54  46  74 NW23      29.92R
LEXINGTON      CLOUDY    71  65  81 S13       29.82F
MCCOOK         CLOUDY    63  54  72 W12       29.84F
OGALLALA       CLOUDY    53  48  82 W8G16     29.94S
$$

NEZ005>010-023>029-035>040-094-241100-
NORTH CENTRAL NEBRASKA

CITY           SKY/WX    TMP DP  RH WIND       PRES   REMARKS
VALENTINE      CLOUDY    56  52  86 NE5       29.75F
AINSWORTH      CLOUDY    61  54  78 CALM      29.81F
BROKEN BOW     MOCLDY    68  65  90 SE9       29.83F
O`NEILL        CLOUDY    72  63  72 SE16G25   29.85F
ORD            LGT RAIN  71  63  75 SE12G21   29.84S
THEDFORD       CLOUDY    57  56  95 CALM      29.82F
$$

NEZ041-046>049-061>064-073>077-083>087-241100-
SOUTH CENTRAL NEBRASKA

CITY           SKY/WX    TMP DP  RH WIND       PRES   REMARKS
GRAND ISLAND   MOCLDY    70  64  81 SE17      29.88S
AURORA         CLOUDY    71  66  84 SE13      29.90R
HASTINGS       PTCLDY    69  64  84 SE10      29.88F
HEBRON         CLEAR     71  65  80 SE10      29.90F
HOLDREGE       CLOUDY    70  65  85 S13       29.85F
KEARNEY *      CLOUDY    72  64  78 S16G22    29.85F
YORK           MOCLDY    72  64  78 S12       29.91S
$$

NEZ011>018-030>034-042>045-241100-
NORTHEAST NEBRASKA

CITY           SKY/WX    TMP DP  RH WIND       PRES   REMARKS
NORFOLK        CLEAR     70  62  76 S13G22    29.90S
ALBION         MOCLDY    70  63  77 SE12      29.89S
BLAIR          PTCLDY    72  64  76 SE7       29.95S
FREMONT        PTCLDY    71  63  76 SE8       29.94S
TEKAMAH        CLOUDY    70  64  81 SE9       29.94S
WAYNE          MOCLDY    72  65  78 SE12      29.92S
$$

NEZ050>053-065>068-078-088>093-241100-
SOUTHEAST NEBRASKA

CITY           SKY/WX    TMP DP  RH WIND       PRES   REMARKS
LINCOLN        MOCLDY    73  64  73 S10       29.93S
OMAHA EPPLEY   PTCLDY    72  63  73 SE13      29.95S
BEATRICE       MOCLDY    73  65  74 S10       29.94S
FALLS CITY     CLEAR     69  65  86 SE7       29.97R
NEBRASKA CITY  CLEAR     69  59  71 S6        29.97S
PLATTSMOUTH    PTCLDY    70  62  75 SE7       29.96S
$$

NEZ044-045-051>053-067-241100-
OMAHA AREA

CITY           SKY/WX    TMP DP  RH WIND       PRES   REMARKS
OMAHA EPPLEY   PTCLDY    72  63  73 SE13      29.95S
BLAIR          PTCLDY    72  64  76 SE7       29.95S
FREMONT        PTCLDY    71  63  76 SE8       29.94S
MILLARD        CLEAR     72  65  79 SE5       29.94S
OFFUTT AFB     CLEAR     71  65  82 SE7       29.95S
PLATTSMOUTH    PTCLDY    70  62  75 SE7       29.96S
WAHOO          FAIR      70  63  80 SE8       29.94R
$$



USA.gov is the U.S. government's official web portal to all federal, state and local government web resources and services.